VK4TW-13 Weather Reports


Display with metric or nautical units.
time (UTC)temp
F
wind
direction
speed
MPH
gust
MPH
rain 1hr
in
rain 24hr
in
rain mn
in
humidity
%
barometer
mb
20260509234244 73 95 2.0 6.0 0.00 0.00 0.00 100 1022.9
20260509233244 72 99 2.0 4.0 0.00 0.00 0.00 100 1023.1
20260509232245 71 94 2.0 9.0 0.00 0.00 0.00 100 1023.1
20260509231856 71 78 7.0 7.0 0.00 0.00 0.00 100 1023.0
20260509231429 71 104 1.0 8.0 0.00 0.00 0.00 100 1022.8
20260509231130 71 71 7.0 7.0 0.00 0.00 0.00 100 1022.7
20260509230715 71 75 1.0 5.0 0.00 0.00 0.00 100 1022.6
20260509225716 70 87 2.0 7.0 0.00 0.00 0.00 100 1022.7
20260509225317 70 70 7.0 7.0 0.00 0.00 0.00 100 1022.7
20260509224922 70 108 2.0 6.0 0.00 0.00 0.00 100 1022.7
20260509223921 69 112 1.0 5.0 0.00 0.00 0.00 100 1022.7
20260509223314 69 74 6.0 6.0 0.00 0.00 0.00 100 1022.9
20260509222931 69 109 1.0 4.0 0.00 0.00 0.00 100 1023.0
20260509221932 68 112 1.0 4.0 0.00 0.00 0.00 100 1022.7
20260509220932 68 87 2.0 6.0 0.00 0.00 0.00 100 1022.4
20260509220630 67 70 7.0 7.0 0.00 0.00 0.00 100 1022.3
20260509220122 67 97 2.0 10.0 0.00 0.00 0.00 100 1022.2
20260509215644 67 96 7.0 10.0 0.00 0.00 0.00 100 1022.3
20260509215334 67 105 2.0 8.0 0.00 0.00 0.00 100 1022.3
20260509214534 67 77 7.0 7.0 0.00 0.00 0.00 100 1022.5
20260509214002 67 98 2.0 8.0 0.00 0.00 0.00 100 1022.7
20260509213555 66 67 7.0 7.0 0.00 0.00 0.00 100 1022.6
20260509212643 66 91 1.0 4.0 0.00 0.00 0.00 100 1022.5
20260509211644 66 93 3.0 5.0 0.00 0.00 0.00 100 1022.3
20260509210641 66 108 2.0 4.0 0.00 0.00 0.00 100 1022.2
20260509205641 66 76 3.0 5.0 0.00 0.00 0.00 100 1022.3
20260509204641 66 81 1.0 4.0 0.00 0.00 0.00 100 1021.9
20260509203639 65 92 3.0 7.0 0.00 0.00 0.00 100 1021.6
20260509202638 65 75 3.0 5.0 0.00 0.00 0.00 100 1021.5
20260509201638 65 90 2.0 4.0 0.00 0.00 0.00 100 1021.6
20260509200634 65 94 1.0 6.0 0.00 0.00 0.00 100 1021.3
20260509195636 65 93 5.0 5.0 0.00 0.00 0.00 100 1021.2
20260509194635 65 73 4.0 4.0 0.00 0.00 0.00 100 1021.3
20260509193633 65 110 0.0 4.0 0.00 0.00 0.00 100 1021.2
20260509192632 65 87 4.0 4.0 0.00 0.00 0.00 100 1021.1
20260509191633 66 88 2.0 4.0 0.00 0.00 0.00 100 1020.8
20260509190630 66 93 3.0 4.0 0.00 0.00 0.00 100 1020.6
20260509185630 66 108 1.0 3.0 0.00 0.00 0.00 100 1020.6
20260509184630 66 108 2.0 2.0 0.00 0.00 0.00 100 1020.6
20260509183627 66 86 3.0 4.0 0.00 0.00 0.00 100 1020.4
20260509182627 66 98 2.0 3.0 0.00 0.00 0.00 100 1020.3
20260509181625 66 83 1.0 4.0 0.00 0.00 0.00 100 1020.3
20260509180625 66 87 1.0 4.0 0.00 0.00 0.00 100 1020.3
20260509175624 67 87 1.0 4.0 0.00 0.00 0.00 100 1020.0
20260509174624 67 95 3.0 4.0 0.00 0.00 0.00 100 1020.1
20260509173622 67 92 1.0 5.0 0.00 0.00 0.00 100 1020.0
20260509172621 67 77 4.0 6.0 0.00 0.00 0.00 100 1020.1
20260509171621 67 87 2.0 3.0 0.00 0.00 0.00 100 1020.1
20260509170619 67 74 2.0 6.0 0.00 0.00 0.00 100 1020.1
20260509165618 66 91 3.0 5.0 0.00 0.00 0.00 100 1020.2
20260509164619 66 100 2.0 5.0 0.00 0.00 0.00 100 1020.2
20260509163617 66 99 4.0 6.0 0.00 0.00 0.00 100 1020.3
20260509162616 66 67 3.0 4.0 0.00 0.00 0.00 100 1020.3
20260509161617 66 81 3.0 6.0 0.00 0.00 0.00 100 1020.4
20260509160614 66 95 3.0 5.0 0.00 0.00 0.00 100 1020.4
20260509155613 66 103 2.0 8.0 0.00 0.00 0.00 100 1020.4
20260509154940 66 92 2.0 10.0 0.00 0.00 0.00 100 1020.4
20260509154630 66 87 7.0 10.0 0.00 0.00 0.00 100 1020.5
20260509154330 66 106 2.0 7.0 0.00 0.00 0.00 100 1020.6
20260509153950 66 78 7.0 7.0 0.00 0.00 0.00 100 1020.6
20260509153619 66 85 2.0 4.0 0.00 0.00 0.00 100 1020.6
20260509152619 66 86 4.0 6.0 0.00 0.00 0.00 100 1020.7
20260509151617 66 98 2.0 6.0 0.00 0.00 0.00 100 1020.8
20260509145750 66 95 2.0 9.0 0.00 0.00 0.00 100 1020.8
20260509145412 66 75 7.0 7.0 0.00 0.00 0.00 100 1020.9
20260509144723 66 88 2.0 7.0 0.00 0.00 0.00 100 1021.1
20260509144419 66 75 8.0 8.0 0.00 0.00 0.00 100 1021.2
20260509143751 66 90 2.0 6.0 0.00 0.00 0.00 100 1021.2
20260509142751 66 82 3.0 6.0 0.00 0.00 0.00 100 1021.3
20260509140748 66 74 3.0 4.0 0.00 0.00 0.00 100 1021.5
20260509135748 66 82 0.0 3.0 0.00 0.00 0.00 100 1021.5
20260509134746 66 99 1.0 3.0 0.00 0.00 0.00 100 1021.5
20260509133745 66 95 1.0 4.0 0.00 0.00 0.00 100 1021.5
20260509132745 66 112 2.0 3.0 0.00 0.00 0.00 100 1021.6
20260509130742 67 102 1.0 4.0 0.00 0.00 0.00 100 1021.8
20260509125742 67 112 1.0 3.0 0.00 0.00 0.00 100 1021.8
20260509124740 67 94 3.0 3.0 0.00 0.00 0.00 100 1021.7
20260509123740 67 110 2.0 5.0 0.00 0.00 0.00 100 1021.7
20260509122740 67 109 1.0 4.0 0.00 0.00 0.00 100 1021.7
20260509121738 67 98 2.0 4.0 0.00 0.00 0.00 100 1021.7
20260509120737 67 98 1.0 4.0 0.00 0.00 0.00 100 1021.7
20260509115737 67 112 1.0 3.0 0.00 0.00 0.00 100 1021.9
20260509113734 67 86 1.0 3.0 0.00 0.00 0.00 100 1021.9
20260509112734 67 75 2.0 3.0 0.00 0.00 0.00 100 1021.9
20260509111733 68 102 2.0 3.0 0.00 0.00 0.00 100 1021.9
20260509110731 68 112 0.0 3.0 0.00 0.00 0.00 100 1021.9
20260509105731 68 107 1.0 4.0 0.00 0.00 0.00 100 1021.9
20260509104730 68 112 1.0 4.0 0.00 0.00 0.00 100 1021.7
20260509103728 68 112 1.0 3.0 0.00 0.00 0.00 100 1021.7
20260509102729 68 112 1.0 3.0 0.00 0.00 0.00 100 1021.7
20260509101726 69 112 1.0 3.0 0.00 0.00 0.00 100 1021.5
20260509095726 69 112 2.0 4.0 0.00 0.00 0.00 100 1021.3
20260509094724 69 112 1.0 2.0 0.00 0.00 0.00 100 1021.1
20260509093723 69 85 3.0 4.0 0.00 0.00 0.00 100 1021.1
20260509091721 70 108 2.0 5.0 0.00 0.00 0.00 100 1020.9
20260509090720 70 112 1.0 5.0 0.00 0.00 0.00 100 1020.8
20260509085720 70 112 1.0 5.0 0.00 0.00 0.00 100 1020.6
20260509084354 70 78 5.0 5.0 0.00 0.00 0.00 100 1020.5
20260509083417 71 111 5.0 5.0 0.00 0.00 0.00 100 1020.3
20260509082637 71 87 0.0 3.0 0.00 0.00 0.00 100 1020.3
20260509081635 71 109 2.0 6.0 0.00 0.00 0.00 100 1020.1
20260509080308 71 106 7.0 7.0 0.00 0.00 0.00 100 1019.9
20260509075333 71 111 2.0 6.0 0.00 0.00 0.00 100 1019.6
20260509074332 72 108 2.0 6.0 0.00 0.00 0.00 100 1019.6
20260509073332 72 108 2.0 4.0 0.00 0.00 0.00 100 1019.5
20260509072331 72 112 1.0 4.0 0.00 0.00 0.00 100 1019.3
20260509071330 72 85 0.0 7.0 0.00 0.00 0.00 100 1019.2
20260509070744 73 106 5.0 6.0 0.00 0.00 0.00 100 1019.1
20260509070435 73 112 0.0 6.0 0.00 0.00 0.00 100 1019.1
20260509065434 73 98 5.0 5.0 0.00 0.00 0.00 100 1019.1
20260509064307 73 111 7.0 9.0 0.00 0.00 0.00 100 1018.8
20260509063959 73 100 2.0 9.0 0.00 0.00 0.00 100 1018.7
20260509063658 73 112 8.0 8.0 0.00 0.00 0.00 100 1018.8
20260509062758 74 105 3.0 8.0 0.00 0.00 0.00 100 1018.7
20260509062421 74 111 8.0 10.0 0.00 0.00 0.00 100 1018.6
20260509062119 74 99 3.0 11.0 0.00 0.00 0.00 100 1018.6
20260509061820 74 111 12.0 12.0 0.00 0.00 0.00 100 1018.5
20260509061115 74 108 6.0 10.0 0.00 0.00 0.00 100 1018.5
20260509060752 74 112 0.0 8.0 0.00 0.00 0.00 100 1018.4
20260509060433 74 112 6.0 7.0 0.00 0.00 0.00 100 1018.4
20260509055939 74 101 0.0 10.0 0.00 0.00 0.00 100 1018.3
20260509055517 74 110 5.0 5.0 0.00 0.00 0.00 100 1018.3
20260509055000 75 112 0.0 6.0 0.00 0.00 0.00 100 1018.4
20260509054553 75 84 5.0 5.0 0.00 0.00 0.00 100 1018.2
20260509054204 75 105 0.0 6.0 0.00 0.00 0.00 100 1018.3
20260509053205 75 106 2.0 6.0 0.00 0.00 0.00 100 1018.2
20260509052202 76 104 3.0 7.0 0.00 0.00 0.00 100 1018.1
20260509051901 76 112 9.0 9.0 0.00 0.00 0.00 100 1018.1
20260509051601 76 108 2.0 6.0 0.00 0.00 0.00 100 1018.1
20260509051300 76 109 7.0 7.0 0.00 0.00 0.00 100 1018.0
20260509050513 77 112 2.0 8.0 0.00 0.00 0.00 100 1018.0
20260509050209 77 108 7.0 7.0 0.00 0.00 0.00 100 1017.8
20260509045224 77 104 2.0 7.0 0.00 0.00 0.00 100 1017.9
20260509044221 77 112 3.0 12.0 0.00 0.00 0.00 100 1018.0
20260509043848 77 108 8.0 8.0 0.00 0.00 0.00 100 1017.9
20260509043114 78 109 3.0 9.0 0.00 0.00 0.00 100 1018.1
20260509042746 78 111 8.0 9.0 0.00 0.00 0.00 100 1017.9
20260509042349 78 102 3.0 4.0 0.00 0.00 0.00 100 1017.9
20260509041346 79 112 1.0 6.0 0.00 0.00 0.00 100 1018.0
20260509040347 79 107 5.0 5.0 0.00 0.00 0.00 100 1017.9
20260509040016 79 112 0.0 5.0 0.00 0.00 0.00 100 1018.0
20260509035014 79 112 1.0 6.0 0.00 0.00 0.00 100 1017.9
20260509034015 80 104 5.0 5.0 0.00 0.00 0.00 96 1018.1
20260509033050 80 112 0.0 5.0 0.00 0.00 0.00 93 1018.1
20260509032748 80 108 6.0 6.0 0.00 0.00 0.00 93 1018.1
20260509032034 80 108 6.0 6.0 0.00 0.00 0.00 93 1018.2
20260509031528 80 112 1.0 5.0 0.00 0.00 0.00 92 1018.2
20260509030528 80 102 2.0 7.0 0.00 0.00 0.00 89 1018.3
20260509030209 80 106 7.0 7.0 0.00 0.00 0.00 90 1018.4
20260509025456 80 112 2.0 4.0 0.00 0.00 0.00 90 1018.6
20260509024457 80 100 2.0 6.0 0.00 0.00 0.00 91 1018.6
20260509023456 80 95 3.0 6.0 0.00 0.00 0.00 88 1018.7
20260509022455 80 96 5.0 5.0 0.00 0.00 0.00 90 1018.7
20260509022111 80 112 0.0 5.0 0.00 0.00 0.00 90 1018.8
20260509021709 80 101 5.0 5.0 0.00 0.00 0.00 89 1018.9
20260509021307 80 108 0.0 5.0 0.00 0.00 0.00 89 1019.0
20260509020542 79 106 5.0 5.0 0.00 0.00 0.00 91 1019.0
20260509015915 79 112 0.0 0.0 0.00 0.00 0.00 91 1019.3
20260509014915 79 103 0.0 0.0 0.00 0.00 0.00 91 1019.3
20260509013914 78 111 0.0 0.0 0.00 0.00 0.00 90 1019.4
20260509012913 78 112 0.0 0.0 0.00 0.00 0.00 86 1019.5
20260509011912 77 112 0.0 0.0 0.00 0.00 0.00 83 1019.6
20260509005910 77 112 0.0 0.0 0.00 0.00 0.00 76 1020.0
20260509004908 77 80 0.0 0.0 0.00 0.00 0.00 70 1020.1
20260509003908 76 97 0.0 0.0 0.00 0.00 0.00 72 1020.4
20260509002907 76 112 0.0 0.0 0.00 0.00 0.00 73 1020.4
20260509001906 75 112 0.0 0.0 0.00 0.00 0.00 75 1020.3
20260509000905 74 81 0.0 0.0 0.00 0.00 0.00 73 1020.6
20260508235904 73 112 0.0 0.0 0.00 0.00 0.00 80 1020.7
20260508234903 72 67 0.0 0.0 0.00 0.00 0.00 76 1020.7